Regional Weather Roundup
Issued by NWS

Home | Current Version | Previous Version | Text Only | Print | Product List | Glossary On
Versions: 1 2 3 4 5 6 7 8 9 10 11 12 13 14 15 16 17 18 19 20 21 22 23 24 25 26 27 28 29 30 31 32 33 34 35 36 37 38 39 40 41 42 43 44 45 46 47 48 49 50
000
ASUS43 KIND 021309
RWRIN

WEATHER ROUNDUP FOR INDIANA
NATIONAL WEATHER SERVICE INDIANAPOLIS IN
900 AM EDT MON MAY 02 2016

NOTE: "FAIR" INDICATES FEW OR NO CLOUDS BELOW 12,000 FEET WITH NO
SIGNIFICANT WEATHER AND/OR OBSTRUCTIONS TO VISIBILITY.

* - STATION DOES NOT REPORT WEATHER SUCH AS PRECIPITATION OR FOG.

+ - STATION NOT QUALITY CONTROLLED BY THE NATIONAL WEATHER SERVICE.
    USE DATA WITH CAUTION...ESPECIALLY DEWPOINT AND RELATIVE
    HUMIDITY OBSERVATIONS.

INZ001>003-010>013-019-020-021400-
NORTHWEST INDIANA

CITY           SKY/WX    TMP DP  RH WIND       PRES   REMARKS
GARY /AIRPORT/ PTSUNNY   48  45  87 NE14      30.05S
KNOX *+        CLOUDY    45  41  87 N10       30.02S
LA PORTE +     CLOUDY    46  46 100 NE9       30.03S
MICHIGAN CITY+ CLOUDY    45  45 100 E7        30.04S
MONTICELLO +   DRIZZLE   47  44  88 N8        30.00S
RENSSELAER +   CLOUDY    46  45  93 N8        30.03R
VALPARAISO     CLOUDY    46  43  89 NE6       30.04R

$$

LMZ046-743>745-021400-
SOUTHERN LAKE MICHIGAN

STATION/POSITION TIME  TEMP    WIND        PRES    WAVE
                       AIR SEA DIR/SP/G            HT
                 (UTC) (F)     (DEG/KT/KT) (MB)    (FT)
BURNS HARBOR     1223   45      40/ 14/ 20 1017.9R
MICHIGAN CITY    1200   45      20/ 20/ 22   N/A

$$

INZ004-005-014>016-021>024-021400-
NORTH CENTRAL INDIANA

CITY           SKY/WX    TMP DP  RH WIND       PRES   REMARKS
ELKHART        CLOUDY    46  46 100 NE7       30.03R
GOSHEN         CLOUDY    45  43  93 NE8       30.02R FOG
LOGANSPORT +   CLOUDY    46  46 100 N8        30.01R
PERU/GRISSOM   DRIZZLE   51  51 100 N9        29.98R FOG
ROCHESTER +    CLOUDY    46  46 100 N8        30.01S FOG
SOUTH BEND     CLOUDY    45  42  89 NE9       30.03S
WARSAW +       CLOUDY    45  45 100 N8        30.01S FOG

$$

INZ006>009-017-018-025>027-021400-
NORTHEAST INDIANA

CITY           SKY/WX    TMP DP  RH WIND       PRES   REMARKS
ANGOLA *+      CLOUDY    45  34  65 N5        30.01R
AUBURN +       CLOUDY    46  45  93 N5        30.02R FOG
FORT WAYNE     CLOUDY    48  46  93 N9        30.00S
HUNTINGTON +   CLOUDY    48  47  95 NE5       29.99S

$$

INZ028-029-035-036-043>045-051>053-021400-
WEST CENTRAL INDIANA

CITY           SKY/WX    TMP DP  RH WIND       PRES   REMARKS
CRAWFORDSVL +  FOG       48  48 100 NW9       29.98F VSB 3/4
GREENCASTLE +  CLOUDY    48  48 100 NW5       30.00R FOG
LAFAYETTE      CLOUDY    49  47  93 N10       30.00S FOG
TERRE HAUTE    CLOUDY    52  47  83 N7        30.00F

$$

INZ030>032-037>040-046>048-054>057-064-065-021400-
CENTRAL INDIANA

CITY           SKY/WX    TMP DP  RH WIND       PRES   REMARKS
ANDERSON       CLOUDY    54  54 100 N3        29.99  FOG
CP ATTERBURY + CLOUDY    54  50  87 W3        29.99S
COLUMBUS       CLOUDY    55  54  94 W8        30.00R
FRANKFORT +      N/A     51  51 100 NW6       30.00S FOG
GREENWOOD *+   CLOUDY    52  50  93 NW3       29.98S
INDIANAPOLIS   CLOUDY    51  49  92 NW8       29.96S FOG
-EAGLE CREEK   CLOUDY    52  49  89 NW12      29.98S
KOKOMO *+      CLOUDY    52  46  82 NE7       29.99R
MARION +       CLOUDY    50  49  98 NE7       29.99R FOG
SHELBYVILLE    CLOUDY    57  51  80 W9        29.98R
ZIONSVILLE +   FOG       50  50  99 NW7       29.99S VSB 3/4

$$

INZ033-034-041-042-049-050-058-059-021400-
EAST CENTRAL INDIANA

CITY           SKY/WX    TMP DP  RH WIND       PRES   REMARKS
MUNCIE         CLOUDY    53  50  89 NE8       29.98R FOG

$$

INZ060-061-067>069-081>083-085>088-021400-
SOUTHWEST INDIANA

CITY           SKY/WX    TMP DP  RH WIND       PRES   REMARKS
EVANSVILLE     SUNNY     56  51  84 NW7       30.03R
HUNTINGBURG *+ CLOUDY    57  50  77 N5        30.02S
WASHINGTON +   CLOUDY    55  51  86 NW3       30.02R

$$

INZ062-063-066-070>080-084-089>092-021400-
SOUTH CENTRAL AND SOUTHEAST INDIANA

CITY           SKY/WX    TMP DP  RH WIND       PRES   REMARKS
BLOOMINGTON    CLOUDY    53  47  79 W5        29.99F
MADISON *+     CLOUDY    57  52  82 W9        30.03R
NORTH VERNON + CLOUDY   N/A N/A N/A CALM      30.00R
SEYMOUR +      CLOUDY    57  50  77 W9        30.01R

$$





USA.gov is the U.S. government's official web portal to all federal, state and local government web resources and services.